Eugene, OR

3:07 PM PDT on September 19, 2017 (GMT -0700)
Mahlon Sweet

Weather History for KEUG - January, 2013

Change the Weather History Date:

Tuesday, January 8, 2013

  Actual Average Record
Temperature  
Mean Temperature 50 °F 40 °F  
Max Temperature 55 °F 46 °F 65 °F (1928)
Min Temperature 44 °F 34 °F 6 °F (1937)
Degree Days  
Heating Degree Days 15 25  
Month to date heating degree days 203 201  
Since 1 July heating degree days 1829 2158  
Cooling Degree Days 0 0  
Month to date cooling degree days 0 0  
Year to date cooling degree days 0 0  
Moisture  
Dew Point 46 °F    
Average Humidity 89    
Maximum Humidity 100    
Minimum Humidity 77    
Precipitation  
Precipitation T in 0.24 in 1.81 in (1959)
Month to date precipitation 0.01 1.91  
Year to date precipitation 0.01 1.91  
Snow  
Snow 0.00 in - - ()
Month to date snowfall 0.0  
Since 1 July snowfall 0.0  
Snow Depth 0.00 in    
Sea Level Pressure  
Sea Level Pressure 30.15 in    
Wind  
Wind Speed 8 mph (South)    
Max Wind Speed 20 mph    
Max Gust Speed 24 mph    
Visibility 10 miles    
Events Rain    
T = Trace of Precipitation, MM = Missing Value Source: NWS Daily Summary

Daily Weather History Graph

Daily Weather History Graph

Search for Another Location

Airport or City:

Trip Planner

Search our weather history database for the weather conditions in past years. The results will help you decide how hot, cold, wet, or windy it might be!

Date:

Astronomy

Jan. 08, 2013 Rise Set
Actual Time 7:47 AM PST 4:52 PM PST
Civil Twilight 7:14 AM PST 5:25 PM PST
Nautical Twilight 6:38 AM PST 6:01 PM PST
Astronomical Twilight 6:03 AM PST 6:36 PM PST
Moon 4:26 AM PST (1/8) 2:00 PM PST (1/8)
Length of Visible Light 10h 10m
Length of Day
9h 05m
Waning Crescent, 13% of the Moon is Illuminated
Jan 8
Waning Crescent
Jan 11
New
Jan 18
First Quarter
Jan 26
Full
Feb 3
Last Quarter

Hourly Weather History & Observations

Time (PST) Temp. Windchill Dew Point Humidity Pressure Visibility Wind Dir Wind Speed Gust Speed Precip Events Conditions
12:54 AM 48.9 °F - 46.0 °F 90% 30.25 in 10.0 mi SSE 6.9 mph - N/A   Overcast
1:43 AM 48.2 °F - 46.4 °F 93% 30.23 in 10.0 mi SSE 6.9 mph - N/A   Overcast
1:54 AM 48.9 °F - 46.9 °F 93% 30.24 in 10.0 mi South 5.8 mph - N/A   Overcast
2:30 AM 48.2 °F - 46.4 °F 93% 30.23 in 10.0 mi South 6.9 mph - N/A   Overcast
2:54 AM 48.9 °F - 46.9 °F 93% 30.23 in 10.0 mi South 8.1 mph - N/A   Overcast
3:54 AM 48.9 °F - 46.9 °F 93% 30.21 in 10.0 mi South 9.2 mph - N/A   Overcast
4:54 AM 50.0 °F - 46.9 °F 89% 30.20 in 10.0 mi South 10.4 mph - N/A   Overcast
5:54 AM 50.0 °F - 46.0 °F 86% 30.20 in 10.0 mi South 8.1 mph - N/A   Overcast
6:54 AM 50.0 °F - 46.0 °F 86% 30.20 in 10.0 mi South 6.9 mph - N/A   Overcast
7:46 AM 48.2 °F - 46.4 °F 93% 30.20 in 8.0 mi SSW 9.2 mph - 0.00 in Rain Light Rain
7:54 AM 48.9 °F - 46.9 °F 93% 30.20 in 9.0 mi SSW 8.1 mph - 0.00 in   Overcast
8:01 AM 48.2 °F - 46.4 °F 93% 30.20 in 10.0 mi SSW 8.1 mph - N/A   Overcast
8:54 AM 51.1 °F - 46.9 °F 86% 30.22 in 10.0 mi SSW 6.9 mph - N/A   Overcast
9:54 AM 51.1 °F - 46.9 °F 86% 30.22 in 10.0 mi South 9.2 mph - N/A   Overcast
10:54 AM 52.0 °F - 46.9 °F 83% 30.20 in 10.0 mi South 13.8 mph - N/A   Overcast
11:54 AM 53.1 °F - 46.0 °F 77% 30.18 in 10.0 mi SSW 11.5 mph - N/A   Overcast
12:54 PM 54.0 °F - 46.0 °F 75% 30.17 in 10.0 mi South 12.7 mph - N/A   Overcast
1:54 PM 54.0 °F - 48.0 °F 80% 30.16 in 10.0 mi SSW 11.5 mph - N/A   Overcast
2:54 PM 55.0 °F - 48.0 °F 77% 30.14 in 10.0 mi SSW 13.8 mph - N/A   Overcast
3:54 PM 54.0 °F - 48.0 °F 80% 30.13 in 10.0 mi SSW 10.4 mph - N/A   Mostly Cloudy
4:21 PM 53.6 °F - 48.2 °F 82% 30.11 in 10.0 mi SW 11.5 mph - N/A   Mostly Cloudy
4:54 PM 52.0 °F - 46.9 °F 83% 30.10 in 10.0 mi SW 8.1 mph - N/A   Mostly Cloudy
5:54 PM 50.0 °F - 46.0 °F 86% 30.07 in 10.0 mi SW 8.1 mph - N/A   Mostly Cloudy
6:54 PM 46.9 °F - 45.0 °F 93% 30.05 in 10.0 mi SSW 4.6 mph - N/A   Scattered Clouds
7:54 PM 46.0 °F 44.8 °F 44.1 °F 93% 30.04 in 10.0 mi SW 3.5 mph - N/A   Scattered Clouds
8:54 PM 46.0 °F 44.8 °F 45.0 °F 96% 30.03 in 10.0 mi South 3.5 mph - N/A   Overcast
9:54 PM 46.9 °F - 45.0 °F 93% 30.02 in 10.0 mi SSE 5.8 mph - N/A   Overcast
10:54 PM 45.0 °F 43.5 °F 44.1 °F 97% 30.00 in 10.0 mi South 3.5 mph - N/A   Overcast
11:54 PM 44.1 °F 40.8 °F 43.0 °F 96% 29.98 in 10.0 mi SSE 5.8 mph - N/A   Clear